Wind_Speed
20 20 20 22 22 15 13 13 13 11 10 9 8 8 7 7 7 6 6 7 7 7 6 6 6 6 6 7 7 8 9 10 11 11 11 11 11 11 12 12 12 12 13 13 12 12 12 11 11
20 19 23 23 15 13 13 13 13 12 12 11 10 9 8 8 7 7 7 7 7 7 6 6 6 6 7 8 8 8 9 9 10 11 11 11 12 11 11 12 12 12 13 13 12 12 12 11 11
21 23 24 15 10 12 13 13 13 13 12 12 12 10 9 8 8 7 7 7 6 6 6 6 6 6 6 7 9 8 9 9 10 10 10 11 11 11 11 12 12 12 12 12 12 11 11 11 10
24 26 19 12 12 13 13 14 14 14 13 13 12 11 11 10 9 8 8 7 6 6 6 6 6 7 7 7 9 9 8 9 9 10 10 10 11 11 12 11 11 11 11 11 11 11 10 10 10
26 21 15 13 14 15 15 15 15 14 14 14 13 13 12 11 10 9 9 8 7 6 6 6 7 7 7 7 9 9 9 9 10 10 9 10 10 11 11 11 11 11 10 10 10 9 9 9 9
23 17 13 13 14 15 15 16 16 16 15 14 14 14 13 12 12 11 10 9 9 8 8 7 7 7 7 7 8 9 9 9 9 9 9 9 10 10 10 10 10 10 9 9 9 8 8 8 8
19 15 12 13 13 14 15 15 16 17 17 16 16 15 14 13 13 12 12 11 10 9 8 8 7 7 6 7 8 8 9 9 8 8 8 9 9 9 9 10 10 9 8 8 7 8 8 7 7
16 13 11 11 13 14 15 16 17 18 18 18 17 16 15 14 13 13 12 12 11 10 9 8 8 7 7 7 7 8 8 8 8 8 8 8 9 9 9 9 9 8 7 7 6 6 7 6 6
13 11 10 10 12 13 15 16 17 18 18 18 18 17 16 15 14 13 13 12 12 11 10 9 8 7 7 7 7 7 7 8 7 7 7 8 8 8 8 7 7 6 6 6 6 6 6 6 5
11 10 9 10 11 13 15 15 16 18 19 19 18 18 17 16 16 15 14 13 13 12 11 10 9 8 8 7 7 7 7 7 6 7 7 7 7 7 7 6 6 5 5 5 6 5 5 5 4
11 10 10 11 12 13 15 16 16 18 18 19 19 19 18 17 16 16 15 15 14 13 12 11 10 9 8 8 7 7 7 7 6 6 6 6 6 6 5 5 5 5 5 5 4 4 3 3 2
11 10 10 11 12 13 14 16 16 17 18 19 19 20 19 18 17 17 16 15 14 13 12 11 10 10 9 8 7 7 7 7 6 6 5 5 5 5 4 4 4 4 4 3 3 2 2 2 1
9 9 10 12 13 13 14 15 16 17 18 18 19 19 20 19 18 17 16 15 15 14 13 12 11 10 9 8 7 7 6 6 6 6 5 5 4 4 4 3 3 3 3 2 2 2 2 2 2
7 9 9 11 11 12 13 15 16 18 18 18 19 20 20 20 18 17 17 16 14 14 13 13 12 11 10 9 7 7 6 6 6 6 5 4 4 3 3 3 2 2 2 1 1 1 2 2 3
7 8 8 9 10 11 12 13 16 17 18 18 19 19 20 20 20 18 17 16 15 14 13 14 13 12 10 10 9 7 6 6 5 5 5 4 3 3 3 2 2 1 1 1 1 0 1 2 3
5 6 7 7 7 9 11 12 14 16 16 17 18 19 19 19 19 18 18 17 16 15 14 13 13 12 11 10 9 8 6 6 6 5 5 5 4 4 3 2 2 2 1 1 2 3 2 2 2
2 3 4 4 5 8 10 11 12 14 15 16 17 17 18 18 18 18 17 17 16 16 15 14 13 12 12 11 10 9 8 7 6 6 6 6 5 5 4 4 3 3 3 2 2 3 3 3 3
4 2 1 1 3 5 7 9 11 13 14 15 16 16 17 17 18 18 17 16 16 16 15 15 13 12 12 11 10 9 8 8 7 6 6 6 5 5 5 5 5 4 4 3 3 4 4 4 5
6 5 3 2 2 3 5 7 10 12 13 14 15 15 16 17 17 17 16 16 16 15 15 15 15 13 13 12 11 10 9 9 7 6 6 5 5 5 6 6 6 6 5 5 5 5 5 5 6
9 7 5 4 4 3 4 6 8 10 12 13 14 14 15 15 16 16 16 16 16 15 15 15 14 14 14 13 12 11 10 9 9 7 7 5 5 6 7 7 7 6 6 6 6 7 6 7 7
10 8 7 6 5 4 5 6 8 9 11 12 12 13 14 13 14 14 14 14 14 15 15 15 15 15 14 14 14 13 11 11 10 9 8 7 6 7 7 7 7 7 7 7 7 7 7 8 8
12 10 9 7 6 6 5 7 8 9 9 10 11 11 12 13 13 13 13 13 13 14 14 14 14 15 14 14 15 14 13 12 11 10 9 9 8 8 8 8 7 8 8 8 8 8 8 9 9
13 12 9 8 7 8 6 7 9 9 10 10 11 11 10 11 12 12 12 12 12 13 14 14 15 14 14 14 14 14 13 13 12 11 11 10 10 10 9 9 8 8 9 9 9 10 10 10 10
15 12 10 8 8 10 7 7 8 8 8 9 9 10 10 10 11 11 11 12 12 12 13 14 14 14 14 14 15 14 13 13 13 12 12 11 11 11 10 10 9 9 9 10 10 11 11 12 12
17 15 13 11 10 10 8 8 9 9 9 9 9 9 9 9 9 10 10 11 11 12 13 14 14 14 14 15 15 15 14 14 14 13 13 12 12 11 11 10 10 10 10 10 11 11 12 12 12
19 17 15 12 10 9 8 10 9 11 11 12 10 9 9 9 8 9 10 10 10 11 12 13 14 14 15 15 15 15 14 14 14 14 13 13 13 13 12 12 11 11 11 11 12 12 12 13 13
20 19 16 14 12 11 11 12 12 12 13 14 11 9 9 10 9 8 9 10 10 11 12 13 13 14 15 15 15 15 15 14 14 14 13 13 14 13 13 13 13 13 13 13 13 13 13 13 13
21 19 18 17 17 15 12 12 13 14 14 13 12 11 11 10 10 10 10 10 10 11 12 13 14 14 15 15 16 15 15 14 14 14 14 14 14 14 14 13 14 14 14 14 13 13 13 13 13
23 22 21 20 18 15 13 13 13 15 15 14 14 13 13 12 10 10 10 11 11 12 13 14 15 15 15 15 16 16 15 14 14 15 14 14 14 15 15 14 14 14 14 14 14 13 13 13 13
24 24 22 23 23 20 17 14 13 15 15 15 16 16 15 14 12 11 12 12 13 13 14 14 16 16 15 15 16 17 16 15 15 16 15 16 15 15 15 15 15 14 14 14 14 14 13 13 12
Wind_Direction
67 66 62 58 51 42 39 41 42 45 46 46 48 50 54 58 60 61 65 69 72 70 68 68 67 70 84 95 104 112 107 107 108 106 105 105 110 113 114 113 111 108 108 107 107 106 107 107 106
67 66 59 53 44 37 42 43 44 45 45 46 48 49 53 60 62 60 66 72 74 75 75 74 73 78 85 93 103 108 108 110 111 109 108 103 106 110 109 112 112 112 110 108 108 106 107 106 104
66 62 57 45 38 42 45 45 45 46 46 47 51 53 57 60 61 62 67 71 72 74 76 79 79 81 81 88 94 104 109 113 113 108 105 103 109 112 112 113 114 115 114 112 108 107 106 105 102
67 58 53 42 43 46 48 48 46 47 49 52 54 55 58 57 58 60 65 70 73 75 77 80 82 88 82 85 91 103 106 110 112 110 106 104 109 111 114 114 114 113 111 109 109 108 107 105 103
66 60 46 39 44 49 51 51 49 49 50 53 55 55 56 55 56 60 63 65 70 74 77 80 84 85 84 87 90 101 105 105 109 107 106 108 109 111 112 113 114 113 113 111 109 108 108 107 105
65 58 43 43 46 50 51 50 49 48 49 53 55 54 55 56 56 58 59 62 67 72 78 82 84 85 86 89 91 96 103 106 107 106 106 105 105 106 108 109 113 114 114 111 106 109 108 109 109
72 63 50 42 46 51 52 51 51 49 49 52 53 54 55 55 55 57 58 61 65 69 77 83 86 86 88 88 89 93 98 98 104 106 104 103 107 105 107 108 111 113 114 110 108 110 112 114 113
70 67 58 43 46 51 51 51 51 49 49 49 51 54 55 55 54 56 60 61 62 65 70 80 86 90 90 91 92 93 94 96 98 103 103 102 103 103 105 105 109 112 113 111 111 112 114 115 117
70 64 59 50 47 51 53 53 51 49 48 47 48 51 53 54 55 58 62 64 62 65 72 76 85 91 93 94 99 98 96 94 91 91 97 96 98 100 100 102 105 109 110 111 112 112 115 115 116
70 60 57 55 50 52 52 52 49 47 47 46 46 49 51 52 54 57 63 65 63 63 68 72 79 85 89 94 104 100 97 98 96 95 98 100 97 99 101 102 102 105 108 115 119 114 113 115 116
66 59 55 56 54 51 51 51 47 45 45 45 45 47 51 54 54 56 61 61 61 60 64 69 73 79 85 88 99 104 100 99 98 95 96 97 95 89 100 96 98 106 115 127 125 124 115 125 118
66 63 62 62 59 57 53 51 47 45 45 45 46 47 49 53 55 56 58 57 57 58 61 64 66 73 80 83 87 100 100 94 92 94 95 94 92 89 88 95 105 114 125 145 149 154 161 169 175
64 58 58 57 56 57 54 53 45 44 45 45 46 47 49 50 52 55 56 55 56 56 57 59 62 67 73 82 84 93 97 92 87 84 82 87 88 86 81 70 90 116 136 149 169 184 209 220 226
73 63 58 56 54 54 50 49 44 43 44 44 45 47 47 48 49 51 51 51 52 53 54 55 58 64 68 71 75 79 87 87 80 76 72 71 72 74 66 59 56 73 109 140 183 190 222 247 256
75 65 54 49 40 43 47 43 39 39 40 42 44 45 46 47 48 48 48 48 50 52 53 54 54 57 62 64 63 67 74 74 63 61 59 51 53 50 43 22 21 10 32 341 313 313 260 263 271
56 49 42 42 32 36 38 35 35 34 36 38 40 41 43 45 46 45 46 46 48 50 51 52 50 52 57 58 56 57 60 56 49 41 39 36 31 27 24 359 354 346 2 335 325 329 333 321 302
125 54 52 21 19 31 37 27 28 32 33 36 37 38 39 42 43 43 44 45 45 45 45 46 46 46 46 49 50 48 47 42 39 34 31 30 26 20 19 5 350 347 349 345 330 321 310 307 311
179 146 95 315 348 26 38 25 19 27 31 34 34 36 38 39 40 41 42 43 44 42 42 42 43 43 40 40 42 39 37 33 28 27 22 26 23 14 5 360 348 339 337 331 323 318 306 297 304
193 190 188 254 288 7 24 21 11 15 26 28 31 33 35 35 37 38 39 40 40 40 40 41 42 41 38 35 33 31 26 24 23 24 14 18 14 1 356 350 344 343 337 328 316 313 308 303 298
197 201 201 256 294 343 356 5 4 2 14 21 24 28 32 33 34 36 38 38 37 37 37 37 35 34 34 31 29 26 21 18 18 16 12 10 2 352 345 344 341 338 330 328 320 314 309 302 298
199 204 210 234 268 299 322 334 348 1 4 8 14 20 24 28 30 32 34 34 33 33 32 32 30 30 31 28 26 24 22 20 17 12 10 7 351 344 344 338 334 331 326 325 318 317 314 305 301
206 207 215 231 248 259 274 297 325 345 346 355 1 7 14 19 24 25 26 27 27 27 26 26 25 25 25 25 23 21 21 16 13 10 5 359 353 345 337 332 327 322 318 319 316 311 309 304 301
207 209 214 228 239 249 247 277 306 322 332 343 350 354 2 8 14 17 19 21 21 22 22 22 21 20 18 17 17 15 14 11 8 6 4 358 355 347 340 331 326 318 314 310 308 306 300 299 300
208 212 222 229 240 253 248 263 287 297 313 322 334 343 351 357 2 8 12 15 16 17 18 16 15 15 15 13 11 9 7 7 3 0 359 355 352 347 343 336 331 323 316 309 305 304 299 298 297
216 217 227 234 238 247 249 246 268 281 285 302 318 331 338 344 348 355 2 6 10 11 10 9 9 9 8 8 7 6 4 1 359 357 355 354 350 347 342 335 330 327 319 311 307 305 303 301 299
221 219 222 223 237 248 251 247 260 275 284 293 300 309 321 329 339 347 353 357 360 2 4 4 4 3 4 3 1 1 0 358 357 355 353 351 349 348 344 338 331 327 322 314 308 305 305 305 302
220 217 220 229 239 244 246 260 260 274 285 292 297 301 305 320 329 332 340 346 349 351 354 356 357 357 357 357 357 357 356 355 353 351 350 350 351 349 343 340 335 331 326 318 312 308 305 302 302
221 221 219 227 236 238 234 250 261 268 272 281 290 295 303 314 317 321 330 333 338 342 345 347 351 351 351 352 353 352 350 350 350 349 349 349 349 347 346 345 340 335 332 328 322 316 310 303 300
224 223 220 222 228 241 246 238 248 264 271 273 279 288 294 299 306 313 317 323 329 332 334 337 341 342 343 345 348 349 347 346 345 345 346 346 345 343 342 342 340 338 335 332 326 319 316 313 308
223 224 224 224 226 227 236 245 253 261 266 271 277 285 290 291 296 301 306 313 321 325 326 329 332 334 335 337 341 344 343 341 340 340 339 340 340 340 341 340 338 338 336 335 333 329 324 321 317
Height
5895 5893 5893 5891 5890 5892 5889 5888 5886 5884 5883 5881 5880 5879 5877 5877 5878 5879 5876 5874 5875 5874 5874 5873 5873 5873 5872 5872 5872 5872 5872 5872 5872 5873 5873 5874 5874 5875 5876 5877 5878 5879 5880 5881 5882 5882 5883 5884 5885
5898 5897 5894 5894 5897 5895 5893 5891 5889 5887 5885 5883 5882 5880 5879 5879 5878 5878 5876 5876 5876 5876 5876 5875 5875 5875 5875 5874 5874 5874 5874 5874 5875 5875 5875 5876 5876 5877 5878 5879 5880 5882 5882 5883 5884 5885 5885 5886 5887
5901 5897 5897 5901 5901 5898 5896 5894 5891 5889 5887 5885 5884 5883 5882 5881 5880 5879 5878 5878 5878 5877 5877 5877 5877 5877 5876 5876 5876 5876 5876 5876 5877 5877 5878 5878 5879 5880 5881 5882 5882 5883 5884 5885 5886 5886 5887 5888 5888
5902 5900 5905 5906 5902 5900 5899 5897 5894 5892 5890 5888 5887 5885 5883 5882 5881 5881 5880 5879 5879 5879 5879 5879 5879 5878 5878 5878 5878 5878 5878 5878 5879 5879 5880 5880 5881 5882 5883 5883 5884 5885 5886 5887 5887 5888 5889 5889 5890
5904 5907 5910 5908 5905 5903 5901 5899 5897 5895 5893 5891 5889 5887 5885 5885 5883 5883 5882 5881 5881 5880 5880 5880 5880 5880 5881 5880 5880 5880 5880 5881 5881 5881 5882 5882 5883 5884 5884 5885 5886 5887 5888 5889 5889 5890 5890 5891 5891
5910 5913 5915 5910 5908 5906 5904 5902 5900 5898 5896 5894 5892 5890 5889 5887 5886 5885 5884 5883 5882 5882 5882 5882 5882 5882 5882 5882 5882 5882 5882 5883 5883 5884 5884 5884 5885 5886 5886 5887 5888 5889 5890 5891 5891 5892 5892 5893 5893
5917 5918 5917 5914 5911 5909 5908 5906 5904 5901 5899 5897 5895 5893 5891 5889 5888 5887 5886 5885 5885 5884 5884 5884 5884 5884 5884 5884 5884 5885 5885 5885 5886 5886 5886 5887 5887 5888 5888 5889 5890 5891 5892 5892 5893 5893 5894 5894 5895
5921 5922 5920 5917 5915 5912 5911 5909 5907 5904 5902 5900 5898 5896 5894 5892 5891 5889 5888 5887 5887 5886 5886 5885 5885 5886 5886 5886 5887 5887 5887 5888 5888 5888 5889 5889 5889 5890 5890 5890 5891 5892 5893 5894 5894 5895 5895 5896 5896
5925 5925 5923 5920 5918 5915 5913 5912 5910 5908 5906 5903 5901 5899 5897 5895 5893 5892 5891 5890 5889 5889 5888 5888 5888 5888 5888 5889 5889 5889 5890 5890 5890 5891 5891 5891 5892 5892 5892 5892 5893 5894 5894 5895 5895 5896 5896 5897 5897
5928 5926 5925 5923 5920 5918 5916 5914 5913 5911 5909 5906 5904 5902 5899 5897 5896 5894 5894 5893 5892 5891 5891 5891 5890 5890 5891 5891 5891 5892 5892 5892 5892 5893 5893 5893 5894 5894 5894 5894 5895 5895 5896 5896 5897 5897 5897 5898 5898
5930 5929 5927 5925 5923 5921 5919 5918 5916 5914 5912 5910 5907 5905 5902 5900 5898 5897 5896 5896 5895 5894 5894 5893 5893 5893 5893 5893 5893 5894 5894 5894 5894 5894 5895 5895 5895 5895 5895 5896 5896 5896 5897 5897 5898 5898 5899 5899 5899
5933 5932 5930 5928 5926 5924 5923 5921 5920 5918 5916 5913 5910 5908 5906 5904 5902 5901 5899 5899 5898 5897 5896 5896 5895 5895 5895 5895 5895 5895 5896 5896 5896 5896 5896 5896 5897 5897 5897 5897 5897 5897 5898 5898 5898 5899 5899 5899 5900
5935 5934 5932 5930 5929 5927 5926 5924 5922 5920 5918 5916 5914 5911 5909 5907 5906 5904 5903 5902 5901 5900 5899 5898 5898 5897 5897 5897 5897 5897 5897 5898 5898 5898 5898 5898 5898 5898 5898 5898 5898 5898 5899 5899 5899 5899 5899 5899 5900
5936 5936 5934 5933 5931 5929 5928 5926 5925 5923 5921 5919 5917 5915 5913 5911 5909 5908 5907 5905 5904 5903 5902 5901 5900 5900 5899 5899 5899 5899 5899 5899 5899 5899 5899 5899 5899 5899 5899 5899 5899 5899 5899 5899 5899 5899 5899 5899 5899
5937 5937 5936 5935 5934 5932 5931 5930 5928 5926 5924 5922 5920 5918 5916 5914 5912 5911 5910 5908 5907 5906 5905 5904 5903 5902 5902 5902 5901 5901 5901 5901 5901 5900 5900 5900 5900 5900 5900 5899 5899 5900 5900 5900 5900 5899 5899 5899 5899
5939 5939 5940 5939 5936 5935 5935 5933 5931 5929 5927 5925 5923 5921 5919 5918 5916 5914 5912 5911 5910 5909 5907 5907 5906 5905 5904 5904 5903 5903 5902 5902 5902 5902 5901 5901 5900 5900 5900 5900 5900 5899 5899 5900 5899 5899 5899 5899 5899
5941 5942 5942 5942 5939 5938 5938 5935 5934 5932 5930 5928 5926 5924 5923 5921 5919 5917 5916 5914 5913 5911 5910 5909 5908 5907 5907 5906 5905 5904 5904 5903 5903 5902 5902 5901 5901 5900 5900 5900 5900 5899 5900 5900 5899 5899 5899 5899 5898
5942 5944 5945 5944 5942 5941 5940 5938 5936 5934 5933 5931 5929 5927 5926 5924 5922 5920 5919 5917 5916 5914 5913 5912 5911 5910 5909 5908 5907 5906 5905 5905 5904 5903 5903 5902 5901 5901 5901 5900 5900 5900 5900 5899 5899 5899 5898 5898 5898
5943 5944 5945 5945 5942 5942 5941 5940 5939 5936 5935 5933 5932 5930 5928 5927 5925 5923 5921 5920 5919 5917 5916 5914 5913 5912 5911 5910 5909 5908 5907 5906 5905 5904 5903 5902 5902 5901 5900 5900 5900 5900 5899 5898 5898 5898 5897 5897 5896
5943 5944 5946 5945 5943 5943 5942 5941 5940 5939 5937 5935 5934 5932 5931 5929 5928 5926 5924 5923 5921 5920 5918 5917 5915 5914 5912 5911 5910 5909 5908 5906 5905 5904 5903 5902 5902 5902 5901 5901 5900 5899 5899 5898 5897 5897 5896 5896 5895
5942 5944 5945 5944 5943 5943 5943 5942 5942 5940 5938 5937 5936 5934 5932 5931 5930 5928 5926 5925 5923 5922 5920 5918 5917 5916 5914 5913 5911 5910 5909 5907 5906 5905 5904 5903 5902 5901 5901 5900 5899 5898 5898 5897 5896 5896 5895 5894 5894
5940 5942 5943 5943 5943 5943 5943 5942 5942 5941 5940 5938 5937 5935 5934 5932 5931 5929 5928 5927 5925 5924 5922 5920 5919 5917 5916 5914 5913 5911 5910 5908 5907 5906 5904 5903 5902 5901 5900 5899 5897 5897 5897 5896 5895 5895 5894 5893 5892
5938 5940 5941 5942 5942 5942 5942 5943 5942 5941 5940 5939 5938 5936 5935 5933 5932 5931 5929 5928 5926 5925 5923 5922 5920 5919 5917 5915 5914 5912 5910 5909 5907 5906 5904 5903 5902 5900 5899 5898 5896 5896 5896 5895 5894 5893 5892 5891 5890
5935 5938 5939 5941 5942 5942 5943 5943 5942 5941 5941 5940 5938 5937 5935 5934 5933 5932 5930 5929 5927 5926 5924 5923 5921 5920 5918 5916 5914 5913 5911 5909 5908 5906 5905 5903 5901 5900 5898 5897 5896 5895 5894 5893 5892 5891 5890 5889 5888
5932 5935 5937 5938 5939 5941 5942 5943 5943 5941 5941 5940 5938 5937 5936 5935 5934 5932 5931 5930 5928 5927 5925 5924 5922 5920 5919 5917 5915 5913 5911 5910 5908 5906 5904 5903 5901 5899 5898 5896 5895 5894 5893 5892 5890 5889 5888 5887 5886
5928 5932 5934 5937 5939 5940 5941 5941 5941 5940 5939 5938 5938 5937 5936 5934 5933 5932 5932 5930 5929 5927 5926 5924 5923 5921 5919 5917 5915 5913 5911 5909 5908 5906 5904 5902 5900 5898 5897 5895 5894 5892 5891 5889 5888 5887 5885 5884 5883
5925 5928 5933 5936 5937 5939 5939 5940 5939 5939 5938 5937 5936 5936 5934 5934 5933 5933 5932 5930 5929 5928 5926 5925 5923 5921 5919 5917 5915 5913 5911 5909 5907 5906 5904 5902 5900 5898 5896 5894 5893 5891 5889 5887 5886 5884 5883 5881 5880
5921 5925 5929 5931 5933 5934 5936 5937 5938 5936 5936 5936 5935 5935 5934 5933 5933 5931 5931 5930 5929 5928 5926 5925 5923 5921 5919 5917 5915 5913 5911 5909 5907 5905 5903 5901 5899 5897 5895 5893 5891 5889 5887 5885 5883 5881 5880 5878 5877
5918 5921 5924 5928 5929 5932 5934 5936 5934 5934 5934 5934 5933 5933 5933 5932 5931 5931 5930 5929 5928 5927 5926 5924 5922 5921 5919 5917 5914 5912 5910 5908 5907 5904 5902 5901 5899 5896 5894 5892 5890 5888 5886 5883 5881 5879 5877 5875 5874
5913 5916 5920 5923 5925 5927 5930 5933 5930 5931 5931 5931 5931 5930 5931 5930 5929 5929 5928 5928 5927 5926 5924 5923 5921 5920 5918 5916 5914 5912 5910 5908 5906 5904 5901 5900 5898 5895 5893 5891 5889 5887 5884 5882 5879 5877 5875 5873 5871